sat.trackr.live / text

‹ back to catalog

TRANSPORTER-16 OBJECT CP

NORAD 68501 · 2026-067CP

PAYLOAD ACTIVE UNKNOWN

§ Identity

Operator
Country
TBD
Launch date
2026-03-30
Launch site
AFWTR
Launch vehicle
Mass (kg)
RCS (m²)

External: N2YO · Heavens-Above · Gunter

§ Orbital elements

Epoch: 2026-05-25T03:00:22.019904Z

Period
96.56 min
Inclination
97.7621°
Eccentricity
0.0004993
Mean motion
14.91369902 rev/d
Perigee alt
590.2 km
Apogee alt
597.1 km
Semi-major
6,971.8 km
B*
1.3388e-4
RAAN
103.7183°
Arg perigee
98.2882°
Mean anomaly
261.8903°
Rev number
828

§ Raw data

TRANSPORTER-16 OBJECT CP1 68501U 26067CP  26145.12525486  .00001280  00000+0  13388-3 0  99982 68501  97.7621 103.7183 0004993  98.2882 261.8903 14.91369902  8280

JSON: /api/v1/satellites/68501 · /tle

For live sub-satellite position, see the globe view (requires WebGL).

§ Visibility from observer

Set your observer location to see the next 7 days of passes ≥ 10°. The values pass through the URL so the page stays shareable.

No JS? Fill the form by hand. The geolocation button needs JavaScript.